Location: Slave Lake
(55.2830°N, 114.7830°W)
Time: 17:15:46
(UTC-06:00)

Amateur Radio Satellites - All Passes

Search period start: 24 August 2016 16:45
Search period end: 25 August 2016 16:45
Location: Slave Lake, 55.2830°N, 114.7830°W

Satellite Date Start Highest point End Downlink Frequencies (MHz)
Time Altitude Azimuth
Cosmos 2499 24 Aug 16:49:54 16:55:07 19° 314° (NW) 17:00:10 435.465 / 435.565
SWISSCUBE 24 Aug 16:54:23 16:59:06 62° 292° (WNW) 17:03:48 437.505
YUBILEINY 24 Aug 17:00:29 17:08:20 34° 56° (NE) 17:16:05 435.215
AO-85 24 Aug 17:02:19 17:04:13 13° 250° (WSW) 17:06:05 145.980
HORYU 2 24 Aug 17:07:42 17:12:04 55° 68° (ENE) 17:16:27 437.375
GONETS M04 24 Aug 17:10:31 17:15:59 17° 325° (NW) 17:21:29
BEESAT 24 Aug 17:12:01 17:16:38 50° 294° (WNW) 17:21:14 436.000
O/OREOS (USA 219) 24 Aug 17:15:11 17:19:31 43° 311° (NW) 17:23:54 437.305
ITAMSAT 1 24 Aug 17:23:22 17:26:11 15° 276° (W) 17:29:01 435.822/435.867
STARS 24 Aug 17:26:15 17:29:55 25° 93° (E) 17:33:32 437.465
BEESAT 2 24 Aug 17:29:15 17:32:31 23° 13° (NNE) 17:35:48 435.950
AIST 2 24 Aug 17:30:46 17:34:21 27° 342° (NNW) 17:37:58 435.215
CUBESAT XI-V 24 Aug 17:31:22 17:33:31 13° 83° (E) 17:35:39 437.345
TISAT 1 24 Aug 17:31:26 17:32:25 11° 313° (NW) 17:33:24 437.305
Cosmos 2504 24 Aug 17:34:04 17:39:24 20° 46° (NE) 17:44:33 435.465 / 435.565
GOMX 1 24 Aug 17:34:32 17:38:50 27° 56° (ENE) 17:43:19 467.674
BRITE-PL 24 Aug 17:39:38 17:44:20 47° 65° (ENE) 17:49:25 437.365/2234.400
Cubesat XI-IV 24 Aug 17:42:21 17:47:06 33° 58° (ENE) 17:51:51 437.490
LilacSat-2 24 Aug 17:45:47 17:48:53 23° 61° (ENE) 17:51:57 437.200
BEESAT 3 24 Aug 17:54:52 17:58:29 32° 25° (NNE) 18:02:07 437.485
CUTE-I 24 Aug 17:55:06 18:00:03 40° 61° (ENE) 18:05:00 437.470
MOZHAYETS 4 24 Aug 17:56:39 18:01:15 86° 287° (WNW) 18:05:50
ITUPSAT 1 24 Aug 17:57:33 18:01:26 25° 304° (WNW) 18:05:20 437.325
DOVE 4 24 Aug 17:59:22 18:03:29 24° 55° (NE) 18:07:38 437.250
AO-7 24 Aug 18:03:09 18:09:43 25° 272° (W) 18:16:18 29.400- 29.500
NOAA 18 24 Aug 18:05:02 18:10:19 46° 62° (ENE) 18:15:34 137.9125
NOAA 15 24 Aug 18:07:42 18:12:52 58° 66° (ENE) 18:18:03 137.62
HO-68 24 Aug 18:08:23 18:13:45 23° 41° (NE) 18:19:07 435.675
KKS-1 24 Aug 18:16:34 18:21:05 74° 289° (WNW) 18:25:32 437.445
PCSat 24 Aug 18:20:21 18:24:43 24° 360° (N) 18:29:06 145.827
SWISSCUBE 24 Aug 18:33:30 18:36:04 15° 312° (NW) 18:38:37 437.505
HORYU 2 24 Aug 18:45:17 18:48:57 24° 267° (W) 18:52:38 437.375
Cosmos 2491 24 Aug 18:46:23 18:54:15 40° 84° (E) 19:02:10 435.465 / 435.565
BEESAT 24 Aug 18:51:34 18:53:26 12° 315° (NW) 18:55:17 436.000
YUBILEINY 24 Aug 18:57:23 19:06:14 82° 261° (W) 19:14:58 435.215
O/OREOS (USA 219) 24 Aug 18:57:31 19:00:08 15° 335° (NNW) 19:02:45 437.305
SEEDS 24 Aug 19:00:54 19:02:53 13° 51° (NE) 19:04:51 437.485
STARS 24 Aug 19:02:14 19:06:34 54° 293° (WNW) 19:10:52 437.465
CINEMA 3 24 Aug 19:05:29 19:09:38 27° 58° (ENE) 19:13:45 145.822/145.860
CUBESAT XI-V 24 Aug 19:07:02 19:11:45 73° 103° (ESE) 19:16:27 437.345
BEESAT 2 24 Aug 19:07:08 19:11:06 54° 36° (NE) 19:15:03 435.950
AIST 2 24 Aug 19:10:38 19:13:59 22° 6° (N) 19:17:19 435.215
GOMX 1 24 Aug 19:11:22 19:16:28 71° 257° (WSW) 19:21:55 467.674
CANX-2 24 Aug 19:13:38 19:16:55 23° 59° (ENE) 19:20:13 2200.000
GONETS M04 24 Aug 19:17:23 19:17:59 10° 360° (N) 19:18:35
BRITE-PL 24 Aug 19:18:30 19:22:59 35° 267° (W) 19:27:50 437.365/2234.400
LilacSat-2 24 Aug 19:19:14 19:22:58 48° 260° (W) 19:26:43 437.200
CUTE 1.7 + AOD 2 24 Aug 19:20:25 19:23:44 23° 59° (ENE) 19:27:03 437.475
Cubesat XI-IV 24 Aug 19:21:45 19:27:00 55° 259° (W) 19:32:16 437.490
Cosmos 2504 24 Aug 19:27:04 19:34:31 67° 73° (ENE) 19:41:39 435.465 / 435.565
BEESAT 3 24 Aug 19:32:30 19:36:28 69° 227° (SW) 19:40:25 437.485
MOZHAYETS 4 24 Aug 19:34:48 19:37:49 18° 307° (NW) 19:40:50
CUTE-I 24 Aug 19:35:00 19:40:06 44° 262° (W) 19:45:14 437.470
DOVE 4 24 Aug 19:35:24 19:40:36 83° 255° (WSW) 19:45:59 437.250
AAUSAT CUBESAT 2 24 Aug 19:41:11 19:43:52 17° 55° (NE) 19:46:34 437.432
COMPASS 1 24 Aug 19:45:11 19:48:20 21° 58° (ENE) 19:51:29 437.405
NOAA 18 24 Aug 19:45:52 19:51:04 40° 262° (W) 19:56:18 137.9125
CUBEBUG 2 24 Aug 19:47:25 19:50:54 21° 57° (ENE) 19:54:19 437.445
NOAA 15 24 Aug 19:48:24 19:52:59 29° 267° (W) 19:57:36 137.62
UWE-3 24 Aug 19:52:58 19:55:57 17° 54° (NE) 19:58:53 435.000/436.395/437.385
HO-68 24 Aug 19:53:16 20:00:22 67° 64° (ENE) 20:07:32 435.675
KKS-1 24 Aug 19:54:19 19:56:57 16° 309° (NW) 19:59:33 437.445
Oscar 11 24 Aug 19:54:23 19:56:16 13° 50° (NE) 19:58:09 145.826/435.025
FUNcube-1 24 Aug 19:57:01 19:59:00 13° 51° (NE) 20:00:58 145.935
PCSat 24 Aug 20:04:42 20:09:38 33° 25° (NNE) 20:14:33 145.827
ZACube-1 24 Aug 20:15:17 20:18:17 18° 55° (NE) 20:21:15 437.345
AIST 1 24 Aug 20:18:59 20:22:28 22° 62° (ENE) 20:25:56
SEEDS 24 Aug 20:33:43 20:37:52 69° 72° (ENE) 20:42:02 437.485
STARS 24 Aug 20:40:24 20:42:02 12° 313° (NW) 20:43:39 437.465
CINEMA 3 24 Aug 20:41:26 20:46:26 66° 258° (WSW) 20:51:25 145.822/145.860
M-CUBED/EXP-1 PRIME 24 Aug 20:41:31 20:43:02 11° 36° (NE) 20:44:32 437.505
STRAND 1 24 Aug 20:41:41 20:46:32 42° 98° (E) 20:51:22 437.568
Cosmos 2491 24 Aug 20:42:02 20:50:43 66° 288° (WNW) 20:59:30 435.465 / 435.565
CUBESAT XI-V 24 Aug 20:45:06 20:48:43 22° 304° (WNW) 20:52:20 437.345
BEESAT 2 24 Aug 20:45:12 20:48:47 32° 237° (WSW) 20:52:22 435.950
CANX-2 24 Aug 20:48:19 20:52:29 60° 259° (W) 20:56:40 2200.000
AIST 2 24 Aug 20:49:26 20:53:25 40° 29° (NNE) 20:57:23 435.215
GOMX 1 24 Aug 20:52:49 20:55:36 14° 279° (W) 20:58:28 467.674
CUTE 1.7 + AOD 2 24 Aug 20:55:08 20:59:17 58° 259° (W) 21:03:27 437.475
YUBILEINY 24 Aug 20:55:09 21:01:46 25° 286° (WNW) 21:08:22 435.215
Cubesat XI-IV 24 Aug 21:06:59 21:08:18 11° 280° (W) 21:09:37 437.490
BEESAT 3 24 Aug 21:11:41 21:13:27 13° 247° (WSW) 21:15:13 437.485
GONETS M04 24 Aug 21:14:36 21:20:02 17° 34° (NE) 21:25:27
AAUSAT CUBESAT 2 24 Aug 21:14:44 21:18:52 83° 257° (WSW) 21:23:01 437.432
DOVE 4 24 Aug 21:15:45 21:19:08 17° 276° (W) 21:22:34 437.250
COMPASS 1 24 Aug 21:19:28 21:23:33 62° 258° (WSW) 21:27:41 437.405
Cosmos 2504 24 Aug 21:21:01 21:27:24 33° 278° (W) 21:33:36 435.465 / 435.565
CUBEBUG 2 24 Aug 21:22:24 21:27:06 77° 256° (WSW) 21:31:42 437.445
UWE-3 24 Aug 21:27:15 21:31:51 87° 72° (ENE) 21:36:21 435.000/436.395/437.385
Oscar 11 24 Aug 21:27:21 21:31:37 62° 71° (ENE) 21:35:53 145.826/435.025
FUNcube-1 24 Aug 21:30:06 21:34:29 62° 71° (ENE) 21:38:48 145.935
HUMSAT D 24 Aug 21:30:56 21:34:03 21° 58° (ENE) 21:37:10 437.325/437.525
HO-68 24 Aug 21:42:05 21:48:36 36° 266° (W) 21:55:10 435.675
DELFI C3 24 Aug 21:47:11 21:50:57 44° 67° (ENE) 21:54:44 145.870
PCSat 24 Aug 21:48:12 21:53:41 90° 48° (NE) 21:59:07 145.827
ZACube-1 24 Aug 21:49:35 21:54:05 86° 258° (WSW) 21:58:29 437.345
PRISM 24 Aug 21:55:16 21:58:54 28° 95° (E) 22:02:31 437.425
AIST 1 24 Aug 21:56:07 22:00:29 61° 263° (W) 22:04:50
AUBIESAT-1 24 Aug 22:09:40 22:13:48 32° 54° (NE) 22:17:53 437.475
SEEDS 24 Aug 22:11:13 22:14:03 18° 272° (W) 22:16:54 437.485
M-CUBED/EXP-1 PRIME 24 Aug 22:12:06 22:16:28 38° 56° (ENE) 22:20:49 437.505
O/OREOS (USA 219) 24 Aug 22:20:17 22:23:04 16° 27° (NNE) 22:25:49 437.305
STRAND 1 24 Aug 22:21:00 22:25:45 40° 298° (WNW) 22:30:29 437.568
CINEMA 3 24 Aug 22:22:19 22:24:30 13° 278° (W) 22:26:40 145.822/145.860
AIST 2 24 Aug 22:27:58 22:32:03 53° 231° (SW) 22:36:07 435.215
VELOX 1 24 Aug 22:28:46 22:30:51 13° 48° (NE) 22:32:56 145.980
CUBEBUG 1 24 Aug 22:38:38 22:41:26 17° 53° (NE) 22:44:17 437.445
Cosmos 2499 24 Aug 22:41:26 22:47:08 24° 52° (NE) 22:52:42 435.465 / 435.565
Cosmos 2491 24 Aug 22:43:01 22:49:37 23° 315° (NW) 22:56:17 435.465 / 435.565
ESTCUBE 1 24 Aug 22:53:12 22:57:01 28° 60° (ENE) 23:00:51 437.505/2401.250
TIGRISAT 24 Aug 22:53:17 22:55:48 15° 86° (E) 22:58:18 435.000
AAUSAT CUBESAT 2 24 Aug 22:53:19 22:55:03 12° 275° (W) 22:56:47 437.432
DX 1 24 Aug 22:56:36 22:59:14 16° 51° (NE) 23:01:54 434.975-435.025
CUBEBUG 2 24 Aug 23:02:10 23:04:28 13° 276° (W) 23:06:46 437.445
Oscar 11 24 Aug 23:04:55 23:08:10 20° 270° (W) 23:11:25 145.826/435.025
HUMSAT D 24 Aug 23:05:12 23:09:21 64° 258° (WSW) 23:13:28 437.325/437.525
UWE-3 24 Aug 23:06:06 23:08:55 16° 273° (W) 23:11:43 435.000/436.395/437.385
FUNcube-1 24 Aug 23:07:43 23:11:07 21° 270° (W) 23:14:28 145.935
GONETS M04 24 Aug 23:11:19 23:19:47 46° 63° (ENE) 23:28:13
SPROUT 24 Aug 23:11:54 23:14:28 16° 53° (NE) 23:17:01 437.525
AISAT 24 Aug 23:15:09 23:18:57 28° 59° (ENE) 23:22:46 437.250
UNISAT 6 24 Aug 23:20:02 23:23:44 26° 93° (E) 23:27:21 437.425
DELFI C3 24 Aug 23:22:45 23:26:00 24° 267° (W) 23:29:17 145.870
ZACube-1 24 Aug 23:28:38 23:31:02 14° 274° (W) 23:33:24 437.345
PRISM 24 Aug 23:30:24 23:34:22 43° 294° (WNW) 23:38:21 437.425
PCSat 24 Aug 23:32:21 23:36:28 22° 250° (WSW) 23:40:33 145.827
50 SAT 24 Aug 23:33:12 23:36:20 29° 64° (ENE) 23:39:30 437.505
UKube-1 24 Aug 23:42:02 23:45:41 27° 59° (ENE) 23:49:22 .
AUBIESAT-1 24 Aug 23:43:32 23:48:04 52° 253° (WSW) 23:52:37 437.475
M-CUBED/EXP-1 PRIME 24 Aug 23:46:26 23:50:55 43° 256° (WSW) 23:55:26 437.505
NANOSAT C BR1 24 Aug 23:53:45 23:54:02 10° 83° (E) 23:54:20 145.865
ANTELSAT 24 Aug 23:56:52 00:01:09 53° 100° (E) 00:05:21 437.575/2403.000
O/OREOS (USA 219) 24 Aug 23:59:09 00:03:37 47° 50° (NE) 00:08:03 437.305
VELOX 1 25 Aug 00:02:06 00:06:29 61° 69° (ENE) 00:10:56 145.980
STRAND 1 25 Aug 00:02:26 00:03:42 11° 320° (NW) 00:04:58 437.568
JAS-2 25 Aug 00:11:42 00:15:32 16° 82° (E) 00:19:33 435.910
CUBEBUG 1 25 Aug 00:12:42 00:17:07 84° 73° (ENE) 00:21:35 437.445
TIGRISAT 25 Aug 00:28:47 00:33:10 86° 290° (WNW) 00:37:27 435.000
ESTCUBE 1 25 Aug 00:29:14 00:33:37 51° 260° (W) 00:38:03 437.505/2401.250
DX 1 25 Aug 00:30:24 00:34:47 79° 73° (ENE) 00:39:12 434.975-435.025
QB50P1 25 Aug 00:33:18 00:36:47 24° 92° (E) 00:40:14 145.935-145.965
Cosmos 2499 25 Aug 00:34:16 00:41:30 84° 77° (ENE) 00:48:35 435.465 / 435.565
CUSAT 1 25 Aug 00:41:05 00:43:52 34° 93° (E) 00:47:17 437.405
POPSAT HIP 1 25 Aug 00:42:53 00:46:35 28° 94° (E) 00:50:15 437.405
SPROUT 25 Aug 00:45:27 00:49:46 80° 74° (ENE) 00:54:08 437.525
BUGSAT 1 25 Aug 00:48:25 00:50:52 15° 87° (E) 00:53:18 437.445
Cosmos 2491 25 Aug 00:49:15 00:51:03 11° 348° (NNW) 00:52:51 435.465 / 435.565
AISAT 25 Aug 00:50:52 00:55:13 52° 259° (W) 00:59:38 437.250
SWISSCUBE 25 Aug 00:55:31 00:57:58 14° 47° (NE) 01:00:24 437.505
UNISAT 6 25 Aug 00:56:30 01:00:43 48° 293° (WNW) 01:04:50 437.425
50 SAT 25 Aug 01:06:40 01:09:54 32° 264° (W) 01:13:11 437.505
GONETS M04 25 Aug 01:08:22 01:17:02 61° 268° (W) 01:25:39
DANDE 25 Aug 01:08:48 01:10:38 17° 90° (E) 01:12:35 436.750
QB50P2 25 Aug 01:12:12 01:16:24 54° 101° (E) 01:20:33 145.880/145.840
BEESAT 25 Aug 01:12:18 01:15:19 17° 50° (NE) 01:18:19 436.000
DUCHIFAT 1 25 Aug 01:14:14 01:18:22 48° 100° (E) 01:22:26 145.980
POLYITAN 1 25 Aug 01:14:45 01:18:56 55° 101° (E) 01:23:04 437.675
TISAT 1 25 Aug 01:16:23 01:20:28 46° 67° (ENE) 01:24:33 437.305
UKube-1 25 Aug 01:17:19 01:21:32 50° 259° (W) 01:25:48 .
RS-15 25 Aug 01:25:19 01:33:27 23° 97° (E) 01:41:49 29.354- 29.394
NANOSAT C BR1 25 Aug 01:26:25 01:30:39 66° 102° (ESE) 01:34:50 145.865
ANTELSAT 25 Aug 01:34:02 01:37:39 26° 301° (WNW) 01:41:11 437.575/2403.000
O/OREOS (USA 219) 25 Aug 01:38:48 01:42:56 34° 251° (WSW) 01:47:04 437.305
VELOX 1 25 Aug 01:39:51 01:43:21 22° 269° (W) 01:46:52 145.980
SO-50 25 Aug 01:42:24 01:46:48 36° 124° (ESE) 01:51:11 436.795
CUBEBUG 1 25 Aug 01:51:18 01:54:02 16° 273° (W) 01:56:48 437.445
JAS-2 25 Aug 01:55:22 02:01:42 64° 102° (ESE) 02:08:49 435.910
ITUPSAT 1 25 Aug 01:56:02 02:00:13 31° 59° (ENE) 02:04:25 437.325
TIGRISAT 25 Aug 02:06:33 02:09:15 16° 307° (NW) 02:11:56 435.000
DX 1 25 Aug 02:08:40 02:11:33 17° 272° (W) 02:14:26 434.975-435.025
QB50P1 25 Aug 02:08:42 02:12:51 51° 292° (WNW) 02:16:57 145.935-145.965
POPSAT HIP 1 25 Aug 02:18:29 02:22:32 43° 294° (WNW) 02:26:32 437.405
BUGSAT 1 25 Aug 02:22:37 02:26:52 83° 285° (WNW) 02:31:00 437.445
SPROUT 25 Aug 02:23:32 02:26:18 16° 273° (W) 02:29:04 437.525
CUSAT 1 25 Aug 02:23:34 02:26:07 21° 303° (WNW) 02:29:09 437.405
Cosmos 2499 25 Aug 02:28:16 02:33:46 25° 281° (WNW) 02:39:12 435.465 / 435.565
SWISSCUBE 25 Aug 02:30:13 02:34:54 60° 68° (ENE) 02:39:36 437.505
UNISAT 6 25 Aug 02:35:40 02:36:27 10° 314° (NW) 02:37:14 437.425
Oscar 19 25 Aug 02:38:39 02:43:27 35° 95° (E) 02:48:12 437.125/150
BEESAT 25 Aug 02:47:38 02:52:24 75° 70° (ENE) 02:57:11 436.000
QB50P2 25 Aug 02:48:29 02:51:57 25° 301° (WNW) 02:55:24 145.880/145.840
Cosmos 2491 25 Aug 02:49:35 02:53:25 13° 24° (NNE) 02:57:15 435.465 / 435.565
DUCHIFAT 1 25 Aug 02:50:19 02:53:53 27° 300° (WNW) 02:57:24 145.980
DANDE 25 Aug 02:51:00 02:53:14 23° 296° (WNW) 02:55:42 436.750
POLYITAN 1 25 Aug 02:51:02 02:54:29 24° 301° (WNW) 02:57:54 437.675
TISAT 1 25 Aug 02:52:40 02:56:19 27° 266° (W) 02:59:59 437.305
STARS 25 Aug 02:56:36 02:58:15 12° 47° (NE) 02:59:54 437.465
NANOSAT C BR1 25 Aug 03:02:49 03:06:01 21° 303° (WNW) 03:09:12 145.865
GONETS M04 25 Aug 03:06:48 03:11:58 17° 293° (WNW) 03:17:08
SO-50 25 Aug 03:22:21 03:27:10 61° 325° (NW) 03:31:54 436.795
Gurwin Techsat 1B 25 Aug 03:24:11 03:29:14 41° 97° (E) 03:34:14 435.225
MOZHAYETS 4 25 Aug 03:28:55 03:33:04 35° 63° (ENE) 03:37:13
RS-15 25 Aug 03:31:58 03:43:26 66° 123° (ESE) 03:55:28 29.354- 29.394
ITUPSAT 1 25 Aug 03:33:17 03:37:55 50° 260° (W) 03:42:34 437.325
JAS-2 25 Aug 03:40:54 03:46:34 37° 301° (WNW) 03:52:52 435.910
KKS-1 25 Aug 03:45:17 03:49:29 41° 64° (ENE) 03:53:43 437.445
ITAMSAT 1 25 Aug 03:46:22 03:50:30 23° 91° (E) 03:54:36 435.822/435.867
QB50P1 25 Aug 03:46:42 03:47:44 11° 313° (NW) 03:48:45 145.935-145.965
BUGSAT 1 25 Aug 03:59:08 04:01:36 15° 307° (NW) 04:04:03 437.445
AO-7 25 Aug 04:01:13 04:07:26 22° 86° (E) 04:13:34 29.400- 29.500
SWISSCUBE 25 Aug 04:09:11 04:13:04 25° 268° (W) 04:16:59 437.505
Oscar 19 25 Aug 04:17:56 04:22:57 48° 296° (WNW) 04:27:56 437.125/150
BEESAT 25 Aug 04:27:16 04:30:44 20° 271° (W) 04:34:13 436.000
STARS 25 Aug 04:29:23 04:33:43 53° 67° (ENE) 04:38:04 437.465
CUBESAT XI-V 25 Aug 04:40:57 04:44:53 28° 60° (ENE) 04:48:51 437.345
Cosmos 2491 25 Aug 04:46:13 04:54:00 33° 55° (NE) 05:01:46 435.465 / 435.565
SO-50 25 Aug 05:04:13 05:08:26 29° 348° (NNW) 05:12:35 436.795
Gurwin Techsat 1B 25 Aug 05:04:14 05:09:15 43° 298° (WNW) 05:14:13 435.225
MOZHAYETS 4 25 Aug 05:05:54 05:10:12 40° 263° (W) 05:14:32
KKS-1 25 Aug 05:22:04 05:26:08 34° 264° (W) 05:30:16 437.445
ITAMSAT 1 25 Aug 05:25:19 05:30:30 71° 291° (WNW) 05:35:39 435.822/435.867
JAS-2 25 Aug 05:27:48 05:30:10 12° 324° (NW) 05:32:37 435.910
BRITE-PL 25 Aug 05:38:30 05:40:28 12° 78° (ENE) 05:42:26 437.365/2234.400
RS-15 25 Aug 05:44:21 05:56:14 67° 333° (NNW) 06:08:37 29.354- 29.394
AO-7 25 Aug 05:53:16 06:01:40 76° 109° (ESE) 06:09:58 29.400- 29.500
Oscar 19 25 Aug 05:58:52 06:01:10 13° 317° (NW) 06:03:30 437.125/150
STARS 25 Aug 06:06:40 06:10:22 25° 267° (W) 06:14:04 437.465
YUBILEINY 25 Aug 06:12:50 06:19:44 27° 76° (ENE) 06:26:38 435.215
NOAA 15 25 Aug 06:17:07 06:19:15 12° 82° (E) 06:21:23 137.62
CUBESAT XI-V 25 Aug 06:17:33 06:22:03 53° 260° (W) 06:26:38 437.345
STRAND 1 25 Aug 06:26:59 06:31:10 26° 55° (NE) 06:35:22 437.568
Cosmos 2504 25 Aug 06:27:41 06:29:52 11° 65° (ENE) 06:32:02 435.465 / 435.565
HORYU 2 25 Aug 06:27:45 06:31:55 38° 98° (E) 06:36:03 437.375
Cosmos 2491 25 Aug 06:43:08 06:52:00 85° 261° (W) 07:00:52 435.465 / 435.565
SO-50 25 Aug 06:45:57 06:50:07 29° 12° (NNE) 06:54:12 436.795
Gurwin Techsat 1B 25 Aug 06:46:01 06:47:59 12° 319° (NW) 06:49:55 435.225
LilacSat-2 25 Aug 06:46:43 06:48:21 12° 86° (E) 06:49:59 437.200
ITAMSAT 1 25 Aug 07:05:50 07:09:12 18° 312° (NW) 07:12:34 435.822/435.867
GOMX 1 25 Aug 07:06:04 07:10:41 27° 89° (E) 07:15:11 467.674
BRITE-PL 25 Aug 07:14:36 07:20:10 54° 98° (E) 07:25:45 437.365/2234.400
PRISM 25 Aug 07:19:50 07:20:49 11° 47° (NE) 07:21:48 437.425
AO-85 25 Aug 07:20:24 07:25:09 36° 123° (ESE) 07:29:38 145.980
DOVE 4 25 Aug 07:27:53 07:31:42 20° 86° (E) 07:35:23 437.250
Cubesat XI-IV 25 Aug 07:31:24 07:36:17 35° 95° (E) 07:41:07 437.490
CUTE-I 25 Aug 07:44:08 07:49:13 43° 98° (E) 07:54:16 437.470
AO-7 25 Aug 07:46:27 07:54:00 40° 312° (NW) 08:01:30 29.400- 29.500
NOAA 15 25 Aug 07:54:51 08:00:09 62° 103° (ESE) 08:05:25 137.62
RS-15 25 Aug 07:59:02 08:10:57 55° 5° (N) 08:23:07 29.354- 29.394
NOAA 18 25 Aug 07:59:51 08:05:12 49° 100° (E) 08:10:30 137.9125
HORYU 2 25 Aug 08:04:26 08:08:28 35° 298° (WNW) 08:12:28 437.375
STRAND 1 25 Aug 08:04:53 08:09:59 70° 256° (WSW) 08:15:07 437.568
YUBILEINY 25 Aug 08:06:33 08:15:26 87° 98° (E) 08:24:19 435.215
Cosmos 2504 25 Aug 08:13:28 08:21:17 46° 88° (E) 08:28:35 435.465 / 435.565
LilacSat-2 25 Aug 08:19:26 08:23:16 87° 286° (WNW) 08:27:03 437.200
SO-50 25 Aug 08:26:42 08:31:24 61° 35° (NE) 08:35:57 436.795
CANX-2 25 Aug 08:26:52 08:29:26 16° 87° (E) 08:32:01 2200.000
CINEMA 3 25 Aug 08:29:43 08:33:11 20° 87° (E) 08:36:32 145.822/145.860
CUTE 1.7 + AOD 2 25 Aug 08:33:31 08:36:09 16° 87° (E) 08:38:46 437.475
Cosmos 2491 25 Aug 08:40:53 08:47:42 26° 285° (WNW) 08:54:31 435.465 / 435.565
GOMX 1 25 Aug 08:43:44 08:49:14 68° 289° (WNW) 08:54:34 467.674
PRISM 25 Aug 08:51:16 08:55:15 52° 68° (ENE) 08:59:18 437.425
UNISAT 6 25 Aug 08:52:02 08:53:55 12° 49° (NE) 08:55:48 437.425
AAUSAT CUBESAT 2 25 Aug 08:52:14 08:52:51 10° 83° (E) 08:53:28 437.432
BRITE-PL 25 Aug 08:53:20 08:58:29 37° 299° (WNW) 09:03:39 437.365/2234.400
COMPASS 1 25 Aug 08:56:05 08:58:18 14° 86° (E) 09:00:31 437.405
AO-85 25 Aug 09:00:24 09:05:31 63° 323° (NW) 09:10:16 145.980
HO-68 25 Aug 09:00:36 09:07:07 35° 94° (E) 09:13:34 435.675
DOVE 4 25 Aug 09:04:48 09:10:04 82° 287° (WNW) 09:15:05 437.250
CUBEBUG 2 25 Aug 09:07:23 09:09:41 14° 85° (E) 09:11:57 437.445
Cubesat XI-IV 25 Aug 09:11:26 09:16:34 50° 296° (WNW) 09:21:41 437.490
UWE-3 25 Aug 09:12:05 09:13:02 11° 82° (E) 09:14:00 435.000/436.395/437.385
CUSAT 1 25 Aug 09:22:01 09:25:41 18° 54° (NE) 09:29:54 437.405
CUTE-I 25 Aug 09:24:20 09:29:18 41° 299° (WNW) 09:34:14 437.470
ANTELSAT 25 Aug 09:27:11 09:30:37 21° 56° (ENE) 09:34:00 437.575/2403.000
ZACube-1 25 Aug 09:32:43 09:34:01 11° 83° (E) 09:35:20 437.345
NOAA 15 25 Aug 09:35:04 09:39:39 30° 303° (WNW) 09:44:14 137.62
AO-7 25 Aug 09:39:26 09:44:44 19° 338° (NNW) 09:50:00 29.400- 29.500
NOAA 18 25 Aug 09:40:45 09:45:48 38° 301° (WNW) 09:50:48 137.9125
SEEDS 25 Aug 09:45:50 09:49:56 49° 100° (E) 09:54:01 437.485
STRAND 1 25 Aug 09:47:41 09:50:08 13° 277° (W) 09:52:36 437.568
LilacSat-2 25 Aug 09:55:02 09:57:00 14° 306° (NW) 09:58:57 437.200
TIGRISAT 25 Aug 09:58:04 10:02:11 33° 63° (ENE) 10:06:14 435.000
CANX-2 25 Aug 10:01:38 10:05:53 81° 287° (WNW) 10:10:07 2200.000
YUBILEINY 25 Aug 10:05:43 10:13:26 32° 306° (NW) 10:21:11 435.215
CINEMA 3 25 Aug 10:06:10 10:10:54 70° 288° (WNW) 10:15:21 145.822/145.860
Cosmos 2504 25 Aug 10:06:26 10:14:36 56° 290° (WNW) 10:22:15 435.465 / 435.565
SO-50 25 Aug 10:07:30 10:11:41 34° 238° (WSW) 10:15:47 436.795
CUTE 1.7 + AOD 2 25 Aug 10:08:18 10:12:33 79° 286° (WNW) 10:16:47 437.475
POPSAT HIP 1 25 Aug 10:09:48 10:11:09 11° 48° (NE) 10:12:30 437.405
RS-15 25 Aug 10:12:55 10:25:18 78° 36° (NE) 10:37:42 29.354- 29.394
GOMX 1 25 Aug 10:22:49 10:26:25 18° 311° (NW) 10:29:58 467.674
AAUSAT CUBESAT 2 25 Aug 10:25:00 10:29:10 69° 103° (ESE) 10:33:19 437.432
UNISAT 6 25 Aug 10:25:17 10:29:48 56° 69° (ENE) 10:34:13 437.425
PRISM 25 Aug 10:27:36 10:30:52 22° 268° (W) 10:34:10 437.425
COMPASS 1 25 Aug 10:30:18 10:34:29 89° 298° (WNW) 10:38:41 437.405
AIST 1 25 Aug 10:32:34 10:36:46 52° 96° (E) 10:41:05
BRITE-PL 25 Aug 10:34:01 10:35:33 11° 320° (NW) 10:37:05 437.365/2234.400
JAS-2 25 Aug 10:34:05 10:37:13 16° 42° (NE) 10:40:29 435.910
QB50P2 25 Aug 10:37:29 10:40:28 19° 55° (NE) 10:43:27 145.880/145.840
DUCHIFAT 1 25 Aug 10:39:08 10:41:52 17° 54° (NE) 10:44:36 145.980
POLYITAN 1 25 Aug 10:40:00 10:43:00 19° 55° (NE) 10:46:00 437.675
AO-85 25 Aug 10:42:25 10:46:45 29° 345° (NNW) 10:50:48 145.980
HUMSAT D 25 Aug 10:42:39 10:44:32 13° 85° (E) 10:46:26 437.325/437.525
CUBEBUG 2 25 Aug 10:42:40 10:47:03 90° 285° (WNW) 10:51:16 437.445
Oscar 11 25 Aug 10:43:13 10:47:25 46° 99° (E) 10:51:34 145.826/435.025
DOVE 4 25 Aug 10:43:21 10:47:01 20° 308° (NW) 10:50:37 437.250
UWE-3 25 Aug 10:46:06 10:50:24 71° 104° (ESE) 10:54:34 435.000/436.395/437.385
FUNcube-1 25 Aug 10:47:00 10:51:05 46° 99° (E) 10:55:05 145.935
HO-68 25 Aug 10:48:14 10:55:22 68° 296° (WNW) 11:02:28 435.675
NANOSAT C BR1 25 Aug 10:50:56 10:54:10 21° 57° (ENE) 10:57:24 145.865
DELFI C3 25 Aug 10:52:14 10:55:41 27° 94° (E) 10:59:08 145.870
Cubesat XI-IV 25 Aug 10:52:58 10:55:33 14° 317° (NW) 10:58:07 437.490
ANTELSAT 25 Aug 11:02:19 11:06:55 75° 255° (WSW) 11:11:27 437.575/2403.000
CUSAT 1 25 Aug 11:03:00 11:08:29 66° 73° (ENE) 11:15:30 437.405
CUTE-I 25 Aug 11:06:20 11:08:05 12° 320° (NW) 11:09:51 437.470
ZACube-1 25 Aug 11:06:54 11:11:08 75° 103° (ESE) 11:15:18 437.345
BEESAT 3 25 Aug 11:07:48 11:10:26 17° 117° (ESE) 11:13:05 437.485
SEEDS 25 Aug 11:21:57 11:25:27 26° 299° (WNW) 11:28:56 437.485
NOAA 18 25 Aug 11:23:20 11:25:05 12° 323° (NW) 11:26:51 137.9125
AO-7 25 Aug 11:30:15 11:34:30 15° 6° (N) 11:38:45 29.400- 29.500
Cosmos 2499 25 Aug 11:31:16 11:34:56 14° 69° (ENE) 11:38:29 435.465 / 435.565
QB50P1 25 Aug 11:32:14 11:36:20 45° 67° (ENE) 11:40:26 145.935-145.965
TIGRISAT 25 Aug 11:34:26 11:38:49 42° 262° (W) 11:43:08 435.000
DANDE 25 Aug 11:34:27 11:38:46 47° 71° (ENE) 11:44:29 436.750
CANX-2 25 Aug 11:38:41 11:41:08 15° 307° (NW) 11:43:33 2200.000
POPSAT HIP 1 25 Aug 11:41:53 11:46:04 54° 68° (ENE) 11:50:16 437.405
BUGSAT 1 25 Aug 11:44:22 11:48:02 28° 61° (ENE) 11:51:42 437.445
CINEMA 3 25 Aug 11:44:31 11:47:12 15° 310° (NW) 11:49:50 145.822/145.860
CUTE 1.7 + AOD 2 25 Aug 11:45:23 11:47:46 15° 307° (NW) 11:50:09 437.475
CUBEBUG 1 25 Aug 11:56:47 11:57:22 10° 82° (E) 11:57:56 437.445
AAUSAT CUBESAT 2 25 Aug 12:01:13 12:04:16 20° 302° (WNW) 12:07:18 437.432
UNISAT 6 25 Aug 12:03:02 12:06:50 25° 268° (W) 12:10:34 437.425
Cosmos 2504 25 Aug 12:04:41 12:09:59 18° 316° (NW) 12:15:06 435.465 / 435.565
COMPASS 1 25 Aug 12:06:56 12:09:30 16° 306° (NW) 12:12:03 437.405
YUBILEINY 25 Aug 12:10:16 12:14:02 13° 337° (NNW) 12:17:48 435.215
AIST 1 25 Aug 12:11:04 12:14:41 25° 296° (WNW) 12:18:22
QB50P2 25 Aug 12:11:30 12:15:48 80° 257° (WSW) 12:20:07 145.880/145.840
DUCHIFAT 1 25 Aug 12:12:44 12:17:00 90° 180° (S) 12:21:18 145.980
ISS 25 Aug 12:13:11 12:16:00 26° 158° (SSE) 12:18:50 145.825
POLYITAN 1 25 Aug 12:14:02 12:18:20 79° 255° (WSW) 12:22:39 437.675
ESTCUBE 1 25 Aug 12:14:39 12:18:08 21° 90° (E) 12:21:36 437.505/2401.250
JAS-2 25 Aug 12:16:02 12:21:10 59° 66° (ENE) 12:26:46 435.910
HUMSAT D 25 Aug 12:16:44 12:20:51 88° 114° (ESE) 12:24:56 437.325/437.525
Oscar 11 25 Aug 12:19:42 12:23:24 28° 299° (WNW) 12:27:05 145.826/435.025
CUBEBUG 2 25 Aug 12:20:18 12:23:04 17° 307° (NW) 12:25:48 437.445
BEESAT 2 25 Aug 12:20:22 12:24:05 39° 126° (SE) 12:27:50 435.950
GONETS M04 25 Aug 12:22:26 12:30:13 38° 82° (E) 12:38:03
UWE-3 25 Aug 12:23:19 12:26:26 20° 304° (WNW) 12:29:30 435.000/436.395/437.385
FUNcube-1 25 Aug 12:23:38 12:27:11 27° 299° (WNW) 12:30:40 145.935
AO-85 25 Aug 12:24:21 12:28:24 27° 9° (N) 12:32:12 145.980
Oscar 19 25 Aug 12:25:04 12:29:04 23° 53° (NE) 12:33:06 437.125/150
NANOSAT C BR1 25 Aug 12:25:17 12:29:32 67° 257° (WSW) 12:33:48 145.865
RS-15 25 Aug 12:25:47 12:37:25 51° 244° (WSW) 12:48:56 29.354- 29.394
DELFI C3 25 Aug 12:26:55 12:30:40 41° 293° (WNW) 12:34:26 145.870
50 SAT 25 Aug 12:28:23 12:30:16 13° 88° (E) 12:32:08 437.505
AISAT 25 Aug 12:34:10 12:37:25 19° 89° (E) 12:40:39 437.250
HO-68 25 Aug 12:36:37 12:42:01 24° 319° (NW) 12:47:23 435.675
PCSat 25 Aug 12:39:03 12:42:26 17° 106° (ESE) 12:45:49 145.827
ANTELSAT 25 Aug 12:42:23 12:44:25 13° 276° (W) 12:46:27 437.575/2403.000
BEESAT 3 25 Aug 12:43:38 12:47:35 88° 305° (NW) 12:51:35 437.485
ZACube-1 25 Aug 12:44:02 12:46:59 19° 304° (NW) 12:49:54 437.345
CUSAT 1 25 Aug 12:45:24 12:50:21 31° 268° (W) 12:56:20 437.405
AUBIESAT-1 25 Aug 12:50:07 12:54:09 38° 103° (ESE) 12:57:54 437.475
M-CUBED/EXP-1 PRIME 25 Aug 12:53:21 12:57:39 49° 106° (ESE) 13:01:36 437.505
UKube-1 25 Aug 12:57:45 13:00:37 17° 89° (E) 13:03:29 .
QB50P1 25 Aug 13:08:36 13:12:18 28° 266° (W) 13:16:01 145.935-145.965
Gurwin Techsat 1B 25 Aug 13:13:58 13:18:26 28° 56° (NE) 13:22:53 435.225
DANDE 25 Aug 13:17:23 13:21:30 32° 265° (W) 13:26:45 436.750
AO-7 25 Aug 13:18:16 13:24:32 25° 33° (NNE) 13:30:48 29.400- 29.500
Cosmos 2499 25 Aug 13:18:39 13:26:28 55° 92° (E) 13:33:42 435.465 / 435.565
POPSAT HIP 1 25 Aug 13:18:41 13:22:09 23° 268° (W) 13:25:38 437.405
BUGSAT 1 25 Aug 13:19:09 13:23:16 46° 261° (W) 13:27:23 437.445
VELOX 1 25 Aug 13:21:13 13:25:31 44° 99° (E) 13:29:48 145.980
CUBEBUG 1 25 Aug 13:30:09 13:34:35 63° 102° (ESE) 13:38:59 437.445
ITAMSAT 1 25 Aug 13:34:23 13:37:45 18° 48° (NE) 13:41:07 435.822/435.867
DX 1 25 Aug 13:47:23 13:51:43 53° 101° (E) 13:56:01 434.975-435.025
ISS 25 Aug 13:48:54 13:52:05 44° 177° (S) 13:55:14 145.825
QB50P2 25 Aug 13:50:25 13:52:20 13° 275° (W) 13:54:15 145.880/145.840
ESTCUBE 1 25 Aug 13:50:52 13:55:23 66° 289° (WNW) 13:59:53 437.505/2401.250
DUCHIFAT 1 25 Aug 13:51:02 13:53:21 14° 274° (W) 13:55:40 145.980
POLYITAN 1 25 Aug 13:53:00 13:54:52 13° 275° (W) 13:56:45 437.675
HUMSAT D 25 Aug 13:53:25 13:55:56 16° 305° (NW) 13:58:27 437.325/437.525
BEESAT 2 25 Aug 13:58:03 14:01:54 46° 327° (NNW) 14:05:48 435.950
SPROUT 25 Aug 13:59:57 14:04:13 56° 101° (ESE) 14:08:26 437.525
50 SAT 25 Aug 14:00:41 14:04:20 74° 286° (WNW) 14:07:58 437.505
JAS-2 25 Aug 14:02:18 14:06:48 28° 270° (W) 14:11:35 435.910
Oscar 19 25 Aug 14:02:41 14:07:53 83° 256° (WSW) 14:13:07 437.125/150
AO-85 25 Aug 14:05:13 14:09:45 55° 34° (NE) 14:13:53 145.980
NANOSAT C BR1 25 Aug 14:05:20 14:06:07 10° 277° (W) 14:06:54 145.865
AISAT 25 Aug 14:09:54 14:14:24 71° 290° (WNW) 14:18:51 437.250
AIST 2 25 Aug 14:10:08 14:13:42 28° 121° (ESE) 14:17:16 435.215
YUBILEINY 25 Aug 14:14:25 14:16:23 11° 12° (NNE) 14:18:20 435.215
GONETS M04 25 Aug 14:17:47 14:26:32 70° 287° (WNW) 14:35:25
PCSat 25 Aug 14:19:34 14:24:58 73° 127° (SE) 14:30:25 145.827
O/OREOS (USA 219) 25 Aug 14:22:06 14:23:32 11° 97° (E) 14:24:59 437.305
BEESAT 3 25 Aug 14:22:17 14:25:45 28° 339° (NNW) 14:29:13 437.485
AUBIESAT-1 25 Aug 14:24:38 14:28:36 35° 304° (NW) 14:32:17 437.475
HO-68 25 Aug 14:25:33 14:27:19 11° 344° (NNW) 14:29:06 435.675
M-CUBED/EXP-1 PRIME 25 Aug 14:28:07 14:31:59 30° 307° (NW) 14:35:36 437.505
TISAT 1 25 Aug 14:28:37 14:32:21 29° 95° (E) 14:36:03 437.305
UKube-1 25 Aug 14:32:52 14:37:14 78° 289° (WNW) 14:41:34 .
RS-15 25 Aug 14:40:39 14:46:39 15° 270° (W) 14:52:38 29.354- 29.394
BEESAT 25 Aug 14:42:25 14:43:59 11° 83° (E) 14:45:33 436.000
Gurwin Techsat 1B 25 Aug 14:52:44 14:58:02 68° 257° (WSW) 15:03:22 435.225
VELOX 1 25 Aug 14:57:55 15:01:54 32° 299° (WNW) 15:05:51 145.980
CUBEBUG 1 25 Aug 15:07:00 15:10:33 24° 302° (WNW) 15:14:06 437.445
AO-7 25 Aug 15:07:43 15:15:51 59° 57° (ENE) 15:24:00 29.400- 29.500
ITAMSAT 1 25 Aug 15:11:17 15:16:26 71° 69° (ENE) 15:21:38 435.822/435.867
Cosmos 2499 25 Aug 15:12:14 15:19:49 44° 294° (WNW) 15:26:56 435.465 / 435.565
DX 1 25 Aug 15:24:00 15:27:41 27° 301° (WNW) 15:31:22 434.975-435.025
ISS 25 Aug 15:25:13 15:28:12 31° 197° (SSW) 15:31:10 145.825
ITUPSAT 1 25 Aug 15:26:26 15:30:24 25° 92° (E) 15:34:21 437.325
ESTCUBE 1 25 Aug 15:29:03 15:31:25 14° 310° (NW) 15:33:47 437.505/2401.250
50 SAT 25 Aug 15:35:59 15:37:18 12° 307° (NW) 15:38:36 437.505
SPROUT 25 Aug 15:36:24 15:39:54 24° 301° (WNW) 15:43:22 437.525
BEESAT 2 25 Aug 15:37:23 15:40:34 22° 350° (N) 15:43:47 435.950
Oscar 19 25 Aug 15:44:46 15:48:02 17° 275° (W) 15:51:19 437.125/150
AO-85 25 Aug 15:46:01 15:50:02 34° 237° (WSW) 15:53:46 145.980
AISAT 25 Aug 15:47:37 15:50:09 15° 310° (NW) 15:52:41 437.250
AIST 2 25 Aug 15:47:51 15:51:57 61° 323° (NW) 15:56:06 435.215
O/OREOS (USA 219) 25 Aug 15:57:36 16:02:03 66° 117° (ESE) 16:06:35 437.305
HORYU 2 25 Aug 15:58:01 16:00:58 18° 53° (NE) 16:03:54 437.375
SWISSCUBE 25 Aug 16:00:34 16:05:14 51° 100° (E) 16:09:53 437.505
BEESAT 3 25 Aug 16:01:26 16:04:29 21° 2° (N) 16:07:32 437.485
PCSat 25 Aug 16:03:44 16:08:49 38° 330° (NNW) 16:13:54 145.827
TISAT 1 25 Aug 16:04:08 16:08:08 42° 295° (WNW) 16:12:07 437.305
NOAA 15 25 Aug 16:07:57 16:09:35 11° 39° (NE) 16:11:13 137.62
UKube-1 25 Aug 16:10:03 16:12:37 16° 309° (NW) 16:15:11 .
YUBILEINY 25 Aug 16:10:59 16:17:44 23° 45° (NE) 16:24:25 435.215
HO-68 25 Aug 16:11:13 16:12:00 10° 11° (NNE) 16:12:47 435.675
NOAA 18 25 Aug 16:17:29 16:19:27 12° 37° (NE) 16:21:25 137.9125
BEESAT 25 Aug 16:17:59 16:22:44 65° 103° (ESE) 16:27:28 436.000
GONETS M04 25 Aug 16:18:26 16:25:17 24° 314° (NW) 16:32:13
Gurwin Techsat 1B 25 Aug 16:36:25 16:39:02 14° 277° (W) 16:41:39 435.225
